Home   Weather   Wroclaw   Past weeks
Flag for Poland

Past Weather in Wroclaw, Poland — June 2011

Now
45 °F

Clear.


Feels Like: 45 °F
Forecast: 65 / 50 °F
Wind: 1 mph from North

Location: Wroclaw Ii

Current Time: Oct 18, 2019 at 2:11:58 am

Latest Report: Oct 18, 2019 at 1:30 am


Visibility: 10 mi

Pressure: 29.98 "Hg

Humidity: 93%

Dew Point: 43 °F

Location of WroclawLocation

June 2011 Weather in Wroclaw — Graph

°F

High & Low Weather Summary for June 2011

 TemperatureHumidityPressure
High86 °F (Jun 5, 1:30 pm)100% (Jun 16, 12:00 am)30.45 "Hg (Jun 16, 12:00 am)
Low48 °F (Jun 21, 4:30 am)24% (Jun 28, 5:00 pm)29.59 "Hg (Jun 8, 4:00 pm)
Average67 °F67%30.01 "Hg
* Reported Jun 1 12:00 am — Jun 30 11:30 pm, Wroclaw. Weather by CustomWeather, © 2019

Note: Actual official high and low records may vary slightly from our data, if they occured in-between our weather recording intervals... More about our weather records

Advertising

Wroclaw Weather History for June 1, 2011

Scroll right to see more
 ConditionsComfort  
Time TempWeatherWind HumidityBarometerVisibility
12:00 am
Wed, Jun 1
68 °FClear.8 mph69%29.95 "Hg10 mi
12:30 am66 °FClear.7 mph73%29.95 "Hg10 mi
1:00 am66 °FPassing clouds.5 mph73%29.95 "HgN/A
1:30 am64 °FPassing clouds.3 mph78%29.95 "HgN/A
2:00 am64 °FClear.2 mph78%29.98 "Hg10 mi
2:30 am66 °FClear.7 mph73%29.98 "Hg10 mi
3:00 am63 °FClear.2 mph83%29.98 "Hg10 mi
4:00 am61 °FClear.2 mph88%30.01 "Hg10 mi
4:30 am63 °FClear.5 mph88%30.01 "Hg10 mi
5:00 am63 °FSunny.7 mph88%30.01 "Hg10 mi
5:30 am63 °FSunny.3 mph88%30.01 "Hg10 mi
6:00 am63 °FSunny.7 mph94%30.04 "Hg10 mi
6:30 am63 °FScattered clouds.9 mph94%30.04 "HgN/A
7:00 am63 °FPartly sunny.9 mph94%30.04 "HgN/A
7:30 am63 °FPartly sunny.13 mph94%30.07 "HgN/A
8:00 am63 °FPartly sunny.15 mph94%30.07 "HgN/A
8:30 am64 °FPartly sunny.14 mph88%30.07 "HgN/A
9:00 am64 °FPartly sunny.9 mph88%30.09 "HgN/A
9:30 am64 °FPartly sunny.13 mph88%30.09 "HgN/A
10:00 am64 °FPartly sunny.14 mph83%30.09 "HgN/A
10:30 am64 °FPartly sunny.12 mph83%30.12 "HgN/A
11:00 am64 °FPartly sunny.14 mph83%30.12 "HgN/A
11:30 am66 °FPartly sunny.14 mph83%30.12 "HgN/A
12:00 pm66 °FPartly sunny.9 mph83%30.15 "HgN/A
1:00 pm68 °FPartly sunny.10 mph78%30.15 "HgN/A
1:30 pm66 °FSprinkles. Passing clouds.16 mph88%30.12 "HgN/A
2:00 pm68 °FPassing clouds.15 mph83%30.12 "HgN/A
2:30 pm70 °FPassing clouds.17 mph78%30.12 "HgN/A
3:00 pm70 °FPartly sunny.18 mph73%30.12 "HgN/A
3:30 pm70 °FPartly sunny.20 mph73%30.12 "HgN/A
4:00 pm70 °FPartly sunny.17 mph73%30.15 "HgN/A
4:30 pm68 °FPartly sunny.17 mph78%30.15 "HgN/A
5:00 pm68 °FPartly sunny.18 mph73%30.18 "HgN/A
5:30 pm68 °FPartly sunny.18 mph73%30.18 "HgN/A
6:00 pm68 °FScattered clouds.16 mph73%30.18 "HgN/A
6:30 pm68 °FPassing clouds.15 mph73%30.18 "HgN/A
7:00 pm68 °FPassing clouds.14 mph73%30.18 "HgN/A
7:30 pm66 °FPassing clouds.15 mph73%30.18 "HgN/A
8:00 pm66 °FPassing clouds.15 mph73%30.18 "HgN/A
8:30 pm66 °FPassing clouds.12 mph73%30.21 "HgN/A
9:00 pm64 °FPassing clouds.7 mph78%30.24 "HgN/A
9:30 pm64 °FPassing clouds.10 mph83%30.24 "HgN/A
10:00 pm64 °FPassing clouds.9 mph78%30.27 "HgN/A
10:30 pm64 °FPassing clouds.9 mph73%30.27 "HgN/A
11:00 pm63 °FPassing clouds.9 mph77%30.27 "HgN/A
11:30 pm63 °FPassing clouds.12 mph73%30.27 "HgN/A
Weather by CustomWeather, © 2019

See weather overview